Regional Weather Roundup
Issued by NWS

Home | Current Version | Previous Version | Text Only | Print | Product List | Glossary On
Versions: 1 2 3 4 5 6 7 8 9 10 11 12 13 14 15 16 17 18 19 20 21 22 23 24 25 26 27
000
ASUS45 KBOU 281807
RWRCO

WEATHER ROUNDUP FOR COLORADO
NATIONAL WEATHER SERVICE DENVER/BOULDER CO
1200 PM MDT THU JUL 28 2016

NOTE: "FAIR" INDICATES FEW OR NO CLOUDS BELOW 12000 FEET WITH NO
SIGNIFICANT WEATHER AND/OR OBSTRUCTIONS TO VISIBILITY.

COZ001>005-013-030-031-281900-
...NORTHWEST COLORADO...

CITY           SKY/WX    TMP DP  RH WIND       PRES   REMARKS
CRAIG          FAIR      85  26  11 N6        30.25F
HAYDEN         FAIR      81  28  15 NW3       30.27F
MEEKER         FAIR      86  26  11 MISG      30.25F
MOUNT WERNER   NOT AVBL
STEAMBOAT SPGS FAIR      80  34  18 E6        30.29F
WALDEN         FAIR      77  25  14 CALM      30.38F
$$

COZ006>008-011-281900-
...WEST CENTRAL VALLEYS...

CITY           SKY/WX    TMP DP  RH WIND       PRES   REMARKS
GRAND JUNCTION FAIR      90  30  11 S5        30.12F
MONTROSE       FAIR      88  40  18 CALM      30.21F
EAGLE          SUNNY     81  28  15 CALM      30.28F
RIFLE          FAIR      87  33  14 N6        30.18F
DELTA          NOT AVBL
NUCLA          NOT AVBL
$$

COZ017>023-064>068-281900-
...SOUTHWEST COLORADO...

CITY           SKY/WX    TMP DP  RH WIND       PRES   REMARKS
DURANGO        FAIR      85  45  24 VRB3      30.31F
CORTEZ         FAIR      92  45  19 W7G16     30.23S
PAGOSA SPRINGS FAIR      81  37  20 CALM      30.40F
TELLURIDE      NOT AVBL
WOLF CREEK PAS PTSUNNY   61  41  48 SW8G18    30.77S
$$

COZ009-010-012-014-032>034-037-058>063-281900-
...CENTRAL COLORADO...

CITY           SKY/WX    TMP DP  RH WIND       PRES   REMARKS
ASPEN          FAIR      84  22  10 NW10G17   30.36F
BUENA VISTA    FAIR      82  25  12 N5        30.36F
COPPER MTN     FAIR      68  12  11 NW14G22   30.73R
BERTHOUD PASS  FAIR      55  41  58 NW20G32   30.72F
COTTONWOOD PAS PTSUNNY   75  19  12 CALM      30.54S
GUNNISON       FAIR      77  34  20 W3        30.40F
KREMMLING      FAIR      79  28  15 CALM      30.34F
LEADVILLE      FAIR      73  14  10 W17G31    30.52S
MONARCH PASS   FAIR      64  28  25 MISG      30.83S
SALIDA         FAIR      86  32  14 SW7       30.39F
SUNLIGHT       NOT AVBL
WILKERSON PASS FAIR      68  18  14 NW7       30.68S
$$

COZ069>075-281900-
...SAN LUIS VALLEY/SANGRE DE CRISTO MOUNTAINS...

CITY           SKY/WX    TMP DP  RH WIND       PRES   REMARKS
ALAMOSA          N/A     81 N/A N/A MISG      30.36F
LA VETA PASS   FAIR      75  37  25 S6        30.57F
SAGUACHE       FAIR      77  45  31 S7        30.40F
$$

COZ035-036-038>040-281900-
...NORTHERN COLORADO FRONT RANGE...

CITY           SKY/WX    TMP DP  RH WIND       PRES   REMARKS
DENVER INTL AP FAIR      78  58  49 N10       30.20S
DMNS CITY PARK   N/A     77  58  51 NE7G13    30.19S
AURORA         NOT AVBL
FRONT RANGE AP MOSUNNY   81  59  47 NW12G21   30.21S
ERIE MUNI ARPT FAIR      79  55  42 N17G23    30.19R
BOULDER MUN AP FAIR      77  55  47 N10G20    30.20R
CENTENNIAL     FAIR      75  56  51 N9        30.22S
BROOMFIELD     MOSUNNY   77  57  50 N9        30.23R
LONGMONT       NOT AVBL
$$

COZ041-046-047-076>085-087-088-281900-
...PIKES PEAK/PALMER DIVIDE AND SOUTHERN FOOTHILLS...

CITY           SKY/WX    TMP DP  RH WIND       PRES   REMARKS
COLO. SPRINGS  FAIR      82  56  40 SW6       30.23F
A. F. ACADEMY  NOT AVBL
SCHRIEVER AFB  NOT AVBL
ELLICOTT       NOT AVBL
FALCON         NOT AVBL
FORT CARSON    NOT AVBL
LIMON          FAIR      84  55  36 SE8       30.17S
MONUMENT HILL  FAIR      81  48  32 N12G20    30.31R
TRINIDAD       NOT AVBL
$$

COZ042>045-048>051-090-091-281900-
...NORTHEAST COLORADO...

CITY           SKY/WX    TMP DP  RH WIND       PRES   REMARKS
GREELEY ARPT   FAIR      79  63  57 NE17G24   30.18F
AKRON          FAIR      75  56  51 VRB5      30.20R
BURLINGTON     FAIR      78  62  57 E14       30.13F
WRAY           NOT AVBL
STERLING       NOT AVBL
HOLYOKE        NOT AVBL
FORT MORGAN    NOT AVBL
$$

COZ086-089-092>099-281900-
...SOUTHEAST COLORADO...

CITY           SKY/WX    TMP DP  RH WIND       PRES   REMARKS
PUEBLO         FAIR      87  56  34 VRB3      30.10F
LA JUNTA       FAIR      93  57  29 VRB7      30.06S
LAMAR          FAIR      93  60  33 S20G28    30.01F
SPRINGFIELD      N/A     89  56  32 S24G31    30.08F
$$




USA.gov is the U.S. government's official web portal to all federal, state and local government web resources and services.